RH
24 26 24 23 27 31 36 40 46 73 68 53 39 25 29 29 28 31 30 23 23 27 30 30 28 27 28 28 28 28 39 38 31 28 23 21 26 29 34 31 30 30 30 39 41
25 29 29 28 27 29 36 34 37 45 78 65 55 31 27 30 33 32 28 30 26 27 31 34 30 30 31 28 30 33 39 35 28 26 24 25 28 31 31 29 28 32 32 33 38
31 27 31 31 31 32 26 28 39 43 55 77 58 45 31 30 37 30 30 34 40 33 32 34 35 35 33 30 32 33 38 32 29 28 30 31 27 32 32 30 25 29 31 33 33
37 34 35 34 31 32 32 29 37 49 49 63 74 47 37 36 43 44 43 39 40 39 38 34 39 40 38 36 30 34 33 32 28 26 33 33 30 30 32 31 29 28 33 32 33
42 42 44 41 36 32 32 30 31 51 52 58 66 61 39 43 38 46 50 49 53 51 46 38 41 40 41 34 34 37 33 34 32 27 33 32 30 30 30 32 28 25 28 32 33
52 49 47 45 42 32 29 30 29 47 51 61 70 64 48 44 37 45 50 52 60 67 63 53 42 39 38 36 38 37 38 37 35 31 33 33 30 29 27 29 28 26 27 29 32
59 58 56 50 48 37 31 35 35 32 41 59 74 69 61 38 48 47 47 49 52 57 64 62 61 46 41 42 42 42 42 39 33 32 32 30 30 29 25 22 25 26 24 25 28
66 72 72 67 61 52 48 47 43 34 44 63 84 67 57 48 47 47 50 53 53 57 64 69 69 62 53 49 44 44 45 48 35 32 30 32 31 25 23 25 25 22 21 18 18
76 77 81 78 70 73 69 53 44 33 47 69 82 80 70 50 50 48 49 53 55 59 66 77 81 73 63 57 52 50 54 48 43 37 38 37 37 31 29 30 27 26 25 22 19
75 77 75 73 74 72 61 65 41 35 59 93 88 88 64 51 46 52 53 57 60 66 69 80 85 84 76 72 68 55 55 52 50 44 44 43 42 35 30 31 28 27 25 25 24
75 74 81 79 89 89 80 61 40 47 67 94 80 75 56 55 47 52 60 59 65 79 75 77 83 92 94 70 63 58 63 53 48 44 41 39 35 31 28 28 26 26 26 23 23
70 80 84 88 94 95 95 80 47 75 96 97 82 76 68 62 50 54 65 62 65 69 77 83 84 79 77 75 69 65 62 56 51 47 44 40 33 29 26 20 20 18 19 18 19
58 76 79 87 85 90 98 76 51 79 98 93 85 78 76 63 52 55 61 66 69 71 68 71 71 82 81 71 66 63 63 59 53 46 41 36 29 23 20 19 19 19 18 17 17
59 77 80 79 78 81 92 67 44 82 98 99 87 86 80 66 59 63 66 64 68 74 72 68 64 66 68 70 66 65 58 53 48 47 48 38 49 28 18 18 17 17 17 16 16
65 70 68 68 70 77 86 53 58 81 96 95 98 84 78 66 57 69 69 64 65 67 69 71 68 68 67 64 65 64 54 49 46 47 46 41 46 30 22 18 17 17 17 16 16
66 65 64 64 70 80 87 70 73 88 94 99 95 83 84 69 62 66 69 63 63 66 68 68 66 68 70 65 60 53 49 46 46 49 58 41 43 32 22 18 18 17 16 17 19
83 88 74 69 75 78 88 64 77 94 97 98 87 84 80 73 66 68 68 62 63 74 74 70 69 61 58 57 53 51 52 62 62 61 55 37 48 31 20 19 18 18 21 24 26
81 87 85 79 83 83 72 77 87 95 99 91 85 87 85 72 70 72 66 65 60 58 69 68 64 56 51 52 55 55 51 59 61 68 58 39 43 28 20 19 23 26 29 30 31
81 88 93 92 77 83 87 86 95 99 97 92 92 87 86 72 68 72 63 58 55 52 56 62 60 54 52 51 51 58 61 55 61 53 62 41 28 20 21 28 33 37 37 38 37
83 85 87 76 81 89 96 96 97 98 91 85 89 81 83 71 71 64 58 53 51 49 50 55 62 58 57 55 55 55 50 62 62 64 62 45 37 33 35 41 42 45 47 48 47
77 72 75 91 95 96 97 99 96 95 89 84 81 75 68 69 69 62 59 53 48 49 53 54 53 59 59 59 59 59 55 52 55 61 68 68 51 43 49 51 51 52 55 57 59
58 74 85 92 96 98 99 99 97 92 79 74 70 74 71 69 70 57 55 52 50 50 53 53 58 70 63 54 51 51 54 56 66 56 68 77 61 52 51 55 55 57 61 68 74
64 72 81 91 98 97 96 94 92 83 75 71 65 66 64 70 64 54 55 52 52 55 55 57 63 69 65 58 53 57 58 60 62 72 79 89 65 55 56 63 69 76 82 87 90
65 70 78 85 87 94 95 94 88 80 75 71 64 64 64 69 64 64 61 57 58 60 58 59 65 62 69 65 62 63 59 63 78 91 78 74 67 62 68 74 83 85 85 88 92
68 71 74 82 88 90 88 86 82 79 71 70 70 67 68 71 68 67 66 63 61 62 60 61 63 68 63 59 58 56 66 78 87 85 93 69 78 73 80 80 79 80 84 91 96
58 69 72 77 78 78 77 77 74 71 71 70 70 69 62 63 63 59 62 61 59 60 61 64 71 75 68 60 61 80 82 82 88 87 86 84 86 84 86 82 75 77 78 78 88
59 65 67 65 70 72 71 69 67 66 66 64 63 68 67 67 65 63 59 60 61 63 65 67 73 74 69 65 82 89 86 87 87 87 89 92 88 85 88 84 79 76 74 73 69